Regional Weather Roundup
Issued by NWS

Home | Current Version | Previous Version | Graphics & Text | Print | Product List | Glossary On
Versions: 1 2 3 4 5 6 7 8 9 10 11 12 13 14 15 16 17 18 19 20 21 22 23 24 25 26 27 28 29 30 31 32 33 34 35 36 37 38 39 40 41 42 43 44 45 46 47 48 49 50
000
ASUS43 KMKX 030721
RWRWI

WISCONSIN REGIONAL WEATHER ROUNDUP
NATIONAL WEATHER SERVICE MILWAUKEE/SULLIVAN WI
100 AM CST TUE MAR 03 2015

NOTE: "FAIR" INDICATES FEW OR NO CLOUDS BELOW 12,000 FEET WITH NO
SIGNIFICANT WEATHER AND/OR OBSTRUCTIONS TO VISIBILITY.

WIZ001-002-006>008-014>016-023>028-030800-
NORTHWEST WISCONSIN

CITY           SKY/WX    TMP DP  RH WIND       PRES   REMARKS
SUPERIOR ARPT  CLOUDY    22   7  51 SW8       29.98F WCI  13
ASHLAND        CLOUDY    22   5  48 S9        30.01F WCI  12
HAYWARD        CLOUDY    21   7  54 S13       30.00F WCI   9
SIREN          CLOUDY    22   8  55 S8        30.00F WCI  12
CUMBERLAND     LGT SNOW  19  14  79 S9        30.01F WCI   9
RICE LAKE      LGT SNOW  21  13  71 S14       30.05F WCI   8
CHETEK         LGT SNOW  20  13  72 S8        30.05F WCI  11
LADYSMITH      CLOUDY    22  10  60 S5        30.05F WCI  16
EAU CLAIRE     CLOUDY    20  16  84 SE3       30.05F
MENOMONIE      CLOUDY    21  17  83 E3        30.05F
NEW RICHMOND   FLURRIES  20  11  68 SE5       30.01F WCI  14
OSCEOLA        LGT SNOW  20  16  83 SE8       30.04F WCI  11
$$

WIZ003>005-009-010-017-018-030800-
NORTH CENTRAL WISCONSIN

CITY           SKY/WX    TMP DP  RH WIND       PRES   REMARKS
MANITOWISH WTR CLOUDY    17   3  55 S5        30.00F WCI  10
ARBOR VITAE    CLOUDY    20   6  54 S8        30.01F WCI  11
WOODRUFF       CLOUDY    20   6  54 S8        30.01F WCI  11
RHINELANDER    CLOUDY    20   6  55 S10       30.03F WCI   9
EAGLE RIVER    CLOUDY    19   2  49 S3        30.01F
LAND O LAKES   CLOUDY    18   4  53 S3        30.01F
PHILLIPS       CLOUDY    20   7  56 S9        30.02S WCI  10
TOMAHAWK       CLOUDY    20   8  59 CALM      30.05F
MEDFORD        CLOUDY    20  11  66 S9        30.04F WCI  10
MERRILL        CLOUDY    22   9  57 S7        30.07F WCI  14
$$

WIZ029-030-035-036-043>047-030800-
CENTRAL WISCONSIN

CITY           SKY/WX    TMP DP  RH WIND       PRES   REMARKS
WAUSAU         CLOUDY    22  11  62 S14       30.07F WCI   9
MOSINEE        LGT SNOW  21  18  86 S10       30.10F WCI  10
MARSHFIELD     CLOUDY    21  17  84 S8        30.07F WCI  11
STEVENS POINT  MIX PCPN  19  17  88 S5        30.11F WCI  13
WAUPACA        CLOUDY    24  18  77 S5        30.16F WCI  18
WAUTOMA        CLOUDY    23  17  78 CALM      30.15F
WISC RAPIDS    CLOUDY    21  15  78 CALM      30.12F
CAMP DOUGLAS   CLOUDY    24  17  77 SE5       30.11F WCI  18
$$

WIZ011>013-019>022-031-037>040-048>050-030800-
NORTHEAST WISCONSIN

CITY           SKY/WX    TMP DP  RH WIND       PRES   REMARKS
ANTIGO         CLOUDY    19  11  70 S9        30.06F WCI   8
SHAWANO        CLOUDY    26  14  60 S3        30.14F
OCONTO         CLOUDY    23  17  77 S5        30.16F WCI  17
STURGEON BAY   CLOUDY    25  16  68 S9        30.17F WCI  15
GREEN BAY      LGT SNOW  24  18  77 S12G23    30.16F WCI  13
MANITOWOC      CLOUDY    26  16  65 S10       30.19F WCI  16
APPLETON       LGT SNOW  23  18  80 S12       30.16F WCI  12
CLINTONVILLE   CLOUDY    25  14  63 S9        30.15S WCI  15
OSHKOSH        CLOUDY    23  17  78 S6        30.15F WCI  16
$$

WIZ032>034-041-042-053>061-030800-
SOUTHWEST WISCONSIN

CITY           SKY/WX    TMP DP  RH WIND       PRES   REMARKS
LA CROSSE      CLOUDY    26  14  60 SE7       30.08F WCI  18
SPARTA         CLOUDY    24  15  68 SE5       30.10F WCI  18
VIROQUA        CLOUDY    22  17  78 SE8       30.05F WCI  13
BOSCOBEL       CLOUDY    26  16  65 CALM      30.10F
PRAIRIE DU CHI CLOUDY    25  16  67 E7        30.07F WCI  17
PLATTEVILLE    CLOUDY    24  19  81 E8        30.08F WCI  16
$$

WIZ056-057-062-063-064-067-068-030800-
SOUTH CENTRAL WISCONSIN

CITY           SKY/WX    TMP DP  RH WIND       PRES   REMARKS
REEDSBURG      CLOUDY    23  15  73 SE5       30.11F WCI  17
BARABOO/DELLS  CLOUDY    23  16  74 SE5       30.11F WCI  17
LONE ROCK      CLOUDY    24  17  74 E8        30.12F WCI  15
MINERAL POINT  CLOUDY    27  19  74 SE10      30.08F WCI  17
MADISON        CLOUDY    24  15  68 S7        30.14F WCI  16
MIDDLETON      CLOUDY    26  16  66 S5        30.14F WCI  20
WATERTOWN      CLOUDY    24  17  74 SE6       30.16F WCI  17
MONROE         CLOUDY    25  19  80 SE8       30.12F WCI  16
JANESVILLE     CLOUDY    27  16  63 SE8       30.15F WCI  18
$$

WIZ051-052-058>065-066-070>072-030800-
SOUTHEAST WISCONSIN

CITY           SKY/WX    TMP DP  RH WIND       PRES   REMARKS
MILWAUKEE      CLOUDY    25  16  68 S6        30.20F WCI  18
WAUKESHA       CLOUDY    23  16  74 S8        30.18F WCI  14
MILWAUKEE/TIMM CLOUDY    27  16  63 S6        30.20F WCI  20
RACINE         CLOUDY    27  16  63 S5        30.21F WCI  22
BURLINGTON     CLOUDY    24  14  68 S6        30.18F WCI  16
KENOSHA        CLOUDY    26  16  65 S7        30.20F WCI  18
FOND DU LAC    CLOUDY    24  15  68 S7        30.16F WCI  16
SHEBOYGAN      CLOUDY    22  20  92 S5        30.18F FOG     WCI  16
WEST BEND      CLOUDY    25  14  63 SE3       30.17F
JUNEAU         CLOUDY    23  16  73 S9        30.16F WCI  13
$$

LSZ147-162-030800-
LAKE SUPERIOR

STATION/POSITION TIME  TEMP    WIND        PRES    WAVE
                       AIR SEA DIR/SP/G            HT/PER
                 (UTC) (F)     (DEG/KT/KT) (MB)    (FT/S)
DEVILS ISLAND    0700   21     180/  5/  6 1016.9F
PORT WING        0640   23     190/  9/ 13 1015.9F
SAXON HARBOR     0600   24     180/  4/ 10 1017.3F
$$

LMZ867-665-643>646-030800-
LAKE MICHIGAN

STATION/POSITION TIME  TEMP    WIND        PRES    WAVE
                       AIR SEA DIR/SP/G            HT/PER
                 (UTC) (F)     (DEG/KT/KT) (MB)    (FT/S)
NORTHPORT PIER   0703   24     180/  3/  9 1021.0F
SISTER BAY       0643   24     200/ 11/ 13   N/A
KEWAUNEE LAKESHO 0600   26     200/  7/ 10   N/A
SHEBOYGAN LAKESH 0700   24     230/  4/  5 1023.6F
PORT WASHINGTON  0600   26     240/  4/  5 1024.0
MILWAUKEE LAKESH 0700   26     200/  6/  8   N/A
KENOSHA   LAKESH 0700   28     190/  7/ 12 1022.7F
$$

TC  - TEMPERATURE IN CELSIUS
VSB - VISIBILITY IN STATUTE MILES
WCI - WIND CHILL INDEX
HX  - HEAT INDEX




USA.gov is the U.S. government's official web portal to all federal, state and local government web resources and services.